KD5UIG Weather Reports


Display with metric or nautical units.
time (UTC)temp
F
wind
direction
speed
MPH
gust
MPH
rain 1hr
in
rain 24hr
in
rain mn
in
humidity
%
barometer
mb
20260831163102 99 188 3.0 14.0 0.00 0.00 0.00 38 1017.4
20260831162557 98 234 5.0 14.0 0.00 0.00 0.00 38 1017.5
20260831162054 98 169 2.0 11.0 0.00 0.00 0.00 39 1017.5
20260831161608 98 207 3.0 12.0 0.00 0.00 0.00 38 1017.7
20260831161055 97 196 2.0 12.0 0.00 0.00 0.00 39 1017.6
20260831160555 97 201 5.0 12.0 0.00 0.00 0.00 39 1017.6
20260831160128 97 0 4.0 12.0 0.00 0.00 0.00 40 1017.5
20260831155554 96 185 3.0 11.0 0.00 0.00 0.00 40 1017.4
20260831155056 96 180 3.0 11.0 0.00 0.00 0.00 39 1017.6
20260831154634 95 210 3.0 10.0 0.00 0.00 0.00 40 1017.6
20260831154058 95 221 3.0 14.0 0.00 0.00 0.00 40 1017.5
20260831153555 95 261 4.0 14.0 0.00 0.00 0.00 40 1017.5
20260831153133 95 225 3.0 12.0 0.00 0.00 0.00 40 1017.5
20260831152556 94 0 4.0 12.0 0.00 0.00 0.00 42 1017.4
20260831152056 94 207 3.0 10.0 0.00 0.00 0.00 41 1017.4
20260831151611 94 255 2.0 10.0 0.00 0.00 0.00 46 1017.4
20260831151056 93 191 4.0 10.0 0.00 0.00 0.00 45 1017.5
20260831150555 93 230 3.0 10.0 0.00 0.00 0.00 46 1017.5
20260831150107 92 171 1.0 11.0 0.00 0.00 0.00 46 1017.4
20260831145555 92 207 2.0 11.0 0.00 0.00 0.00 48 1017.5
20260831145055 91 173 3.0 9.0 0.00 0.00 0.00 48 1017.4
20260831144608 91 182 4.0 9.0 0.00 0.00 0.00 50 1017.4
20260831144055 91 186 2.0 9.0 0.00 0.00 0.00 52 1017.4
20260831143555 90 200 2.0 10.0 0.00 0.00 0.00 52 1017.4
20260831143115 90 216 3.0 10.0 0.00 0.00 0.00 53 1017.5
20260831142556 89 0 2.0 7.0 0.00 0.00 0.00 55 1017.5
20260831142054 89 209 1.0 9.0 0.00 0.00 0.00 56 1017.4
20260831141601 88 0 3.0 10.0 0.00 0.00 0.00 56 1017.4
20260831141054 88 247 2.0 10.0 0.00 0.00 0.00 58 1017.3
20260831140554 87 206 3.0 10.0 0.00 0.00 0.00 59 1017.4
20260831140106 86 208 3.0 9.0 0.00 0.00 0.00 60 1017.3
20260831135556 86 180 1.0 5.0 0.00 0.00 0.00 62 1017.3
20260831135057 85 184 1.0 4.0 0.00 0.00 0.00 63 1017.1
20260831134611 85 0 1.0 5.0 0.00 0.00 0.00 64 1017.1
20260831134056 84 188 2.0 6.0 0.00 0.00 0.00 64 1017.0
20260831133600 84 198 1.0 6.0 0.00 0.00 0.00 65 1017.1
20260831133106 83 145 2.0 5.0 0.00 0.00 0.00 66 1017.0
20260831132555 82 188 1.0 3.0 0.00 0.00 0.00 68 1016.9
20260831132055 82 188 0.0 3.0 0.00 0.00 0.00 68 1016.8
20260831131605 81 185 0.0 3.0 0.00 0.00 0.00 69 1016.8
20260831131054 81 0 0.0 2.0 0.00 0.00 0.00 70 1016.7
20260831130554 80 188 0.0 2.0 0.00 0.00 0.00 70 1016.6
20260831130135 80 0 0.0 2.0 0.00 0.00 0.00 71 1016.5
20260831125555 80 0 0.0 2.0 0.00 0.00 0.00 71 1016.4
20260831125056 79 0 0.0 2.0 0.00 0.00 0.00 71 1016.3
20260831124603 79 0 0.0 0.0 0.00 0.00 0.00 71 1016.2
20260831124055 79 0 0.0 0.0 0.00 0.00 0.00 71 1016.1
20260831123554 79 0 0.0 0.0 0.00 0.00 0.00 70 1016.1
20260831123109 79 0 0.0 0.0 0.00 0.00 0.00 70 1016.1
20260831122555 79 0 0.0 1.0 0.00 0.00 0.00 70 1016.0
20260831122055 79 0 0.0 2.0 0.00 0.00 0.00 70 1016.0
20260831121604 79 0 0.0 3.0 0.00 0.00 0.00 70 1015.9
20260831121055 79 192 0.0 3.0 0.00 0.00 0.00 69 1015.8
20260831120556 79 0 0.0 2.0 0.00 0.00 0.00 69 1015.7
20260831120147 79 0 0.0 3.0 0.00 0.00 0.00 69 1015.8
20260831115555 79 0 0.0 3.0 0.00 0.00 0.00 69 1015.6
20260831115055 79 0 1.0 3.0 0.00 0.00 0.00 68 1015.6
20260831114610 80 0 0.0 2.0 0.00 0.00 0.00 68 1015.5
20260831114055 80 0 0.0 3.0 0.00 0.00 0.00 68 1015.5
20260831113555 80 0 0.0 3.0 0.00 0.00 0.00 68 1015.4
20260831113102 80 0 1.0 4.0 0.00 0.00 0.00 67 1015.4
20260831112554 80 0 0.0 4.0 0.00 0.00 0.00 67 1015.3
20260831112054 80 0 0.0 1.0 0.00 0.00 0.00 66 1015.3
20260831111648 80 0 0.0 2.0 0.00 0.00 0.00 66 1015.3
20260831111055 80 0 0.0 3.0 0.00 0.00 0.00 66 1015.2
20260831110555 80 0 0.0 5.0 0.00 0.00 0.00 66 1015.2
20260831110110 81 194 1.0 5.0 0.00 0.00 0.00 66 1015.2
20260831105555 81 0 1.0 5.0 0.00 0.00 0.00 66 1015.1
20260831105055 81 192 1.0 5.0 0.00 0.00 0.00 66 1015.0
20260831104607 81 197 2.0 5.0 0.00 0.00 0.00 65 1015.0
20260831104054 81 180 1.0 3.0 0.00 0.00 0.00 65 1015.1
20260831103555 81 0 0.0 4.0 0.00 0.00 0.00 64 1015.2
20260831103104 81 0 0.0 4.0 0.00 0.00 0.00 64 1015.2
20260831102555 81 175 0.0 5.0 0.00 0.00 0.00 64 1015.2
20260831102056 81 0 1.0 5.0 0.00 0.00 0.00 64 1015.2
20260831101624 82 197 1.0 5.0 0.00 0.00 0.00 64 1015.2
20260831101056 82 207 1.0 5.0 0.00 0.00 0.00 63 1015.2
20260831100559 82 213 1.0 5.0 0.00 0.00 0.00 63 1015.1
20260831100104 82 211 2.0 6.0 0.00 0.00 0.00 63 1015.1
20260831095555 82 0 1.0 6.0 0.00 0.00 0.00 63 1015.0
20260831095055 82 182 1.0 8.0 0.00 0.00 0.00 63 1015.0
20260831094610 82 195 3.0 8.0 0.00 0.00 0.00 63 1014.9
20260831094058 82 196 1.0 5.0 0.00 0.00 0.00 63 1014.9
20260831093555 82 190 1.0 7.0 0.00 0.00 0.00 63 1015.0
20260831093108 82 196 1.0 7.0 0.00 0.00 0.00 63 1014.9
20260831092555 82 194 2.0 7.0 0.00 0.00 0.00 63 1014.9
20260831092054 82 0 2.0 7.0 0.00 0.00 0.00 63 1014.8
20260831091606 82 188 1.0 6.0 0.00 0.00 0.00 63 1014.7
20260831091059 82 185 2.0 6.0 0.00 0.00 0.00 63 1014.6
20260831090557 82 210 1.0 8.0 0.00 0.00 0.00 62 1014.6
20260831090124 82 171 1.0 8.0 0.00 0.00 0.00 61 1014.7
20260831085555 82 202 1.0 6.0 0.00 0.00 0.00 61 1014.8
20260831085056 82 182 1.0 4.0 0.00 0.00 0.00 60 1014.7
20260831084606 82 203 1.0 7.0 0.00 0.00 0.00 60 1014.7
20260831084055 82 196 2.0 7.0 0.00 0.00 0.00 59 1014.7
20260831083555 82 188 2.0 5.0 0.00 0.00 0.00 58 1014.8
20260831083104 82 238 1.0 6.0 0.00 0.00 0.00 58 1014.8
20260831082558 82 360 1.0 6.0 0.00 0.00 0.00 57 1014.9
20260831082055 82 360 1.0 6.0 0.00 0.00 0.00 57 1014.9
20260831081603 82 360 1.0 5.0 0.00 0.00 0.00 56 1014.9
20260831081056 83 0 1.0 6.0 0.00 0.00 0.00 56 1014.9
20260831080557 82 360 2.0 6.0 0.00 0.00 0.00 56 1014.8
20260831080111 83 360 1.0 6.0 0.00 0.00 0.00 56 1014.8
20260831075555 83 188 2.0 6.0 0.00 0.00 0.00 56 1014.7
20260831075059 83 360 2.0 6.0 0.00 0.00 0.00 56 1014.6
20260831074608 83 360 2.0 9.0 0.00 0.00 0.00 56 1014.6
20260831074057 83 360 2.0 9.0 0.00 0.00 0.00 56 1014.6
20260831073600 82 360 3.0 9.0 0.00 0.00 0.00 56 1014.6
20260831073118 82 206 2.0 5.0 0.00 0.00 0.00 56 1014.5
20260831072559 83 172 0.0 4.0 0.00 0.00 0.00 56 1014.4
20260831072058 83 0 0.0 3.0 0.00 0.00 0.00 56 1014.4
20260831071609 83 0 0.0 3.0 0.00 0.00 0.00 56 1014.4
20260831071057 83 0 0.0 2.0 0.00 0.00 0.00 56 1014.5
20260831070556 83 0 0.0 2.0 0.00 0.00 0.00 56 1014.4
20260831070138 83 0 0.0 2.0 0.00 0.00 0.00 56 1014.5
20260831065557 83 0 0.0 4.0 0.00 0.00 0.00 56 1014.4
20260831065055 83 0 0.0 4.0 0.00 0.00 0.00 56 1014.5
20260831064608 84 0 0.0 4.0 0.00 0.00 0.00 56 1014.4
20260831064058 84 0 0.0 2.0 0.00 0.00 0.00 56 1014.5
20260831063556 84 0 0.0 2.0 0.00 0.00 0.00 56 1014.6
20260831063110 84 0 0.0 2.0 0.00 0.00 0.00 56 1014.5
20260831062556 84 0 0.0 4.0 0.00 0.00 0.00 56 1014.5
20260831062056 84 0 0.0 4.0 0.00 0.00 0.00 55 1014.5
20260831061611 84 0 0.0 2.0 0.00 0.00 0.00 55 1014.5
20260831061055 84 164 0.0 4.0 0.00 0.00 0.00 55 1014.6
20260831060556 84 0 0.0 4.0 0.00 0.00 0.00 55 1014.5
20260831060112 84 0 0.0 3.0 0.00 0.00 0.00 55 1014.5
20260831055556 84 164 0.0 4.0 0.00 0.00 0.00 55 1014.5
20260831055055 84 167 0.0 4.0 0.00 0.00 0.00 54 1014.5
20260831054606 84 0 0.0 2.0 0.00 0.00 0.00 54 1014.4
20260831054055 85 0 0.0 2.0 0.00 0.00 0.00 54 1014.4
20260831053556 85 0 0.0 1.0 0.00 0.00 0.00 54 1014.5
20260831053111 85 0 0.0 1.0 0.00 0.00 0.00 53 1014.4
20260831052556 85 169 0.0 4.0 0.00 0.00 0.00 53 1014.5
20260831052055 85 0 0.0 4.0 0.00 0.00 0.00 53 1014.4
20260831051621 85 0 0.0 2.0 0.00 0.00 0.00 53 1014.4
20260831051055 85 0 0.0 2.0 0.00 0.00 0.00 52 1014.4
20260831050605 86 0 0.0 2.0 0.00 0.00 0.00 52 1014.3
20260831050115 86 176 0.0 2.0 0.00 0.00 0.00 52 1014.3
20260831045555 86 0 0.0 2.0 0.00 0.00 0.00 51 1014.2
20260831045056 86 0 0.0 2.0 0.00 0.00 0.00 51 1014.2
20260831044606 86 0 0.0 1.0 0.00 0.00 0.00 50 1014.3
20260831044055 86 0 0.0 1.0 0.00 0.00 0.00 50 1014.4
20260831043555 86 0 0.0 1.0 0.00 0.00 0.00 50 1014.5
20260831043104 87 0 0.0 2.0 0.00 0.00 0.00 50 1014.6
20260831042556 87 0 0.0 2.0 0.00 0.00 0.00 49 1014.5
20260831042055 87 0 0.0 2.0 0.00 0.00 0.00 49 1014.4
20260831041607 87 0 0.0 2.0 0.00 0.00 0.00 49 1014.4
20260831041056 87 0 0.0 0.0 0.00 0.00 0.00 49 1014.3
20260831040556 87 0 0.0 1.0 0.00 0.00 0.00 49 1014.3
20260831040106 87 0 0.0 2.0 0.00 0.00 0.00 48 1014.2
20260831035555 88 0 0.0 2.0 0.00 0.00 0.00 48 1014.3
20260831035055 88 0 0.0 2.0 0.00 0.00 0.00 48 1014.3
20260831034600 88 0 0.0 2.0 0.00 0.00 0.00 47 1014.3
20260831034056 88 180 0.0 2.0 0.00 0.00 0.00 47 1014.3
20260831033555 88 180 0.0 0.0 0.00 0.00 0.00 47 1014.3
20260831033109 88 0 0.0 0.0 0.00 0.00 0.00 47 1014.2
20260831032555 88 0 0.0 0.0 0.00 0.00 0.00 46 1014.3
20260831032053 88 0 0.0 2.0 0.00 0.00 0.00 46 1014.3
20260831031606 88 0 0.0 3.0 0.00 0.00 0.00 45 1014.2
20260831031056 89 0 1.0 3.0 0.00 0.00 0.00 45 1014.1
20260831030554 89 0 0.0 0.0 0.00 0.00 0.00 44 1014.0
20260831025555 89 0 0.0 1.0 0.00 0.00 0.00 44 1014.0
20260831025056 89 0 0.0 2.0 0.00 0.00 0.00 43 1014.0
20260831024619 89 0 0.0 2.0 0.00 0.00 0.00 43 1014.0
20260831024056 89 0 0.0 2.0 0.00 0.00 0.00 42 1013.9
20260831023555 90 0 0.0 1.0 0.00 0.00 0.00 42 1013.7
20260831023110 90 0 0.0 1.0 0.00 0.00 0.00 41 1013.8
20260831022555 90 0 0.0 1.0 0.00 0.00 0.00 41 1013.7
20260831022055 90 0 0.0 1.0 0.00 0.00 0.00 41 1013.6
20260831021605 90 0 0.0 1.0 0.00 0.00 0.00 41 1013.5
20260831021055 91 0 0.0 1.0 0.00 0.00 0.00 40 1013.5
20260831020558 91 0 0.0 1.0 0.00 0.00 0.00 40 1013.3
20260831020112 91 0 0.0 1.0 0.00 0.00 0.00 39 1013.2
20260831015555 92 0 0.0 1.0 0.00 0.00 0.00 39 1013.2
20260831015055 92 0 0.0 1.0 0.00 0.00 0.00 39 1013.2
20260831014612 92 0 0.0 1.0 0.00 0.00 0.00 38 1013.1
20260831014055 92 0 0.0 1.0 0.00 0.00 0.00 38 1013.0
20260831013555 93 0 0.0 1.0 0.00 0.00 0.00 38 1013.0
20260831013111 93 0 0.0 2.0 0.00 0.00 0.00 37 1013.0
20260831012556 94 0 0.0 2.0 0.00 0.00 0.00 36 1013.0
20260831012058 94 0 0.0 4.0 0.00 0.00 0.00 36 1013.0
20260831011604 94 0 0.0 4.0 0.00 0.00 0.00 36 1012.9
20260831011055 95 0 1.0 4.0 0.00 0.00 0.00 35 1012.9
20260831010555 96 171 0.0 4.0 0.00 0.00 0.00 34 1012.8
20260831010134 96 0 0.0 1.0 0.00 0.00 0.00 33 1012.8
20260831005555 97 0 0.0 2.0 0.00 0.00 0.00 32 1012.8
20260831005056 97 0 0.0 2.0 0.00 0.00 0.00 32 1012.8
20260831004611 98 0 0.0 3.0 0.00 0.00 0.00 31 1012.8
20260831004100 98 169 0.0 4.0 0.00 0.00 0.00 31 1012.8
20260831003557 98 0 0.0 4.0 0.00 0.00 0.00 31 1012.8
20260831003121 98 0 0.0 4.0 0.00 0.00 0.00 31 1012.8
20260831002555 99 0 1.0 5.0 0.00 0.00 0.00 31 1012.8
20260831002055 99 203 1.0 5.0 0.00 0.00 0.00 30 1012.9
20260831001609 99 168 0.0 4.0 0.00 0.00 0.00 30 1012.8
20260831001056 99 0 1.0 3.0 0.00 0.00 0.00 30 1012.7
20260831000556 100 225 1.0 3.0 0.00 0.00 0.00 30 1012.7
20260831000109 100 135 1.0 5.0 0.00 0.00 0.00 29 1012.8
20260830235555 100 207 1.0 5.0 0.00 0.00 0.00 29 1012.9
20260830235055 100 229 1.0 5.0 0.00 0.00 0.00 30 1012.9
20260830234607 101 212 2.0 8.0 0.00 0.00 0.00 30 1012.8
20260830234055 101 200 1.0 8.0 0.00 0.00 0.00 29 1012.7
20260830233558 101 0 1.0 7.0 0.00 0.00 0.00 29 1012.7
20260830233101 101 117 2.0 7.0 0.00 0.00 0.00 29 1012.8
20260830232558 101 49 1.0 7.0 0.00 0.00 0.00 29 1012.7
20260830232056 102 156 1.0 8.0 0.00 0.00 0.00 29 1012.8
20260830231606 102 150 2.0 9.0 0.00 0.00 0.00 29 1012.8
20260830231058 102 229 3.0 9.0 0.00 0.00 0.00 29 1012.7
20260830230555 102 119 2.0 10.0 0.00 0.00 0.00 29 1012.8
20260830230109 103 113 3.0 10.0 0.00 0.00 0.00 29 1012.9
20260830225555 103 0 2.0 8.0 0.00 0.00 0.00 29 1012.9
20260830225055 103 211 3.0 11.0 0.00 0.00 0.00 29 1012.9
20260830224607 103 192 3.0 11.0 0.00 0.00 0.00 28 1012.9
20260830224055 103 171 1.0 11.0 0.00 0.00 0.00 28 1012.9
20260830223556 103 44 4.0 11.0 0.00 0.00 0.00 28 1013.0
20260830223105 103 167 2.0 6.0 0.00 0.00 0.00 30 1012.8
20260830222556 104 100 1.0 7.0 0.00 0.00 0.00 29 1013.0
20260830222055 104 157 2.0 7.0 0.00 0.00 0.00 28 1013.0
20260830221610 104 98 1.0 5.0 0.00 0.00 0.00 29 1013.0
20260830221055 104 159 1.0 5.0 0.00 0.00 0.00 29 1013.0
20260830220555 104 116 1.0 5.0 0.00 0.00 0.00 27 1013.0
20260830220129 104 135 2.0 5.0 0.00 0.00 0.00 27 1013.0
20260830215556 104 90 1.0 8.0 0.00 0.00 0.00 27 1013.2
20260830215100 105 169 2.0 8.0 0.00 0.00 0.00 28 1013.1
20260830214606 106 159 2.0 13.0 0.00 0.00 0.00 27 1013.0
20260830214057 105 157 4.0 13.0 0.00 0.00 0.00 27 1013.1
20260830213555 106 65 2.0 9.0 0.00 0.00 0.00 28 1013.1
20260830213103 106 120 2.0 9.0 0.00 0.00 0.00 28 1013.3
20260830212557 106 178 3.0 10.0 0.00 0.00 0.00 27 1013.3
20260830212057 106 175 4.0 10.0 0.00 0.00 0.00 27 1013.2
20260830211606 106 115 2.0 13.0 0.00 0.00 0.00 26 1013.4
20260830211059 106 86 2.0 13.0 0.00 0.00 0.00 27 1013.3
20260830210556 106 5 2.0 12.0 0.00 0.00 0.00 28 1013.4
20260830210106 106 165 1.0 8.0 0.00 0.00 0.00 28 1013.4
20260830205555 106 0 3.0 10.0 0.00 0.00 0.00 27 1013.5
20260830205055 106 146 3.0 10.0 0.00 0.00 0.00 28 1013.6
20260830204605 106 161 4.0 10.0 0.00 0.00 0.00 28 1013.7
20260830204057 105 64 1.0 10.0 0.00 0.00 0.00 29 1013.6
20260830203555 105 180 3.0 10.0 0.00 0.00 0.00 29 1013.8
20260830203120 105 114 2.0 10.0 0.00 0.00 0.00 29 1013.9
20260830202555 106 0 2.0 10.0 0.00 0.00 0.00 28 1013.8
20260830202056 106 253 3.0 11.0 0.00 0.00 0.00 29 1014.0
20260830201606 106 180 3.0 11.0 0.00 0.00 0.00 29 1014.0
20260830201056 106 213 2.0 11.0 0.00 0.00 0.00 29 1014.1
20260830200555 105 203 2.0 11.0 0.00 0.00 0.00 29 1014.2
20260830200105 105 162 3.0 10.0 0.00 0.00 0.00 29 1014.3
20260830195555 105 171 2.0 10.0 0.00 0.00 0.00 30 1014.4
20260830195055 105 199 2.0 12.0 0.00 0.00 0.00 29 1014.4
20260830194610 105 105 4.0 13.0 0.00 0.00 0.00 29 1014.5
20260830194057 105 202 3.0 14.0 0.00 0.00 0.00 29 1014.6
20260830193555 106 102 4.0 14.0 0.00 0.00 0.00 29 1014.7
20260830193101 105 171 3.0 9.0 0.00 0.00 0.00 31 1014.7
20260830192554 105 180 4.0 9.0 0.00 0.00 0.00 31 1014.7
20260830192056 105 134 2.0 7.0 0.00 0.00 0.00 31 1014.7
20260830191604 105 184 2.0 9.0 0.00 0.00 0.00 32 1014.8
20260830191055 105 243 3.0 10.0 0.00 0.00 0.00 31 1014.8
20260830190555 105 191 4.0 10.0 0.00 0.00 0.00 32 1014.9
20260830190104 105 0 2.0 9.0 0.00 0.00 0.00 33 1014.9
20260830185559 104 125 1.0 9.0 0.00 0.00 0.00 32 1015.0
20260830185055 104 173 3.0 13.0 0.00 0.00 0.00 33 1015.1
20260830184600 103 184 5.0 13.0 0.00 0.00 0.00 33 1015.1
20260830184055 103 213 4.0 16.0 0.00 0.00 0.00 32 1015.1
20260830183559 103 190 5.0 16.0 0.00 0.00 0.00 33 1015.2
20260830183123 103 235 4.0 16.0 0.00 0.00 0.00 33 1015.2
20260830182555 103 213 2.0 11.0 0.00 0.00 0.00 34 1015.3
20260830182055 102 224 3.0 11.0 0.00 0.00 0.00 35 1015.4
20260830181625 102 182 2.0 10.0 0.00 0.00 0.00 36 1015.4
20260830181055 102 211 2.0 14.0 0.00 0.00 0.00 34 1015.5
20260830180555 102 213 5.0 14.0 0.00 0.00 0.00 33 1015.6
20260830180112 102 168 3.0 13.0 0.00 0.00 0.00 36 1015.6
20260830175555 102 180 4.0 13.0 0.00 0.00 0.00 34 1015.8
20260830175055 102 214 3.0 18.0 0.00 0.00 0.00 36 1015.8
20260830174602 102 145 4.0 18.0 0.00 0.00 0.00 35 1016.0
20260830174055 102 167 4.0 11.0 0.00 0.00 0.00 34 1016.0
20260830173554 101 239 4.0 13.0 0.00 0.00 0.00 36 1016.0
20260830173143 101 184 4.0 13.0 0.00 0.00 0.00 37 1016.1
20260830172556 101 209 2.0 12.0 0.00 0.00 0.00 37 1016.2
20260830172057 100 210 2.0 12.0 0.00 0.00 0.00 39 1016.2
20260830171606 100 215 4.0 15.0 0.00 0.00 0.00 38 1016.3
20260830171057 100 187 5.0 15.0 0.00 0.00 0.00 37 1016.5
20260830170555 100 179 5.0 15.0 0.00 0.00 0.00 38 1016.3
20260830170109 100 209 4.0 11.0 0.00 0.00 0.00 40 1016.5
20260830165555 100 209 2.0 10.0 0.00 0.00 0.00 39 1016.6
20260830165055 100 202 4.0 12.0 0.00 0.00 0.00 41 1016.6
20260830164609 99 236 5.0 18.0 0.00 0.00 0.00 40 1016.6
20260830164056 99 187 6.0 18.0 0.00 0.00 0.00 40 1016.6
20260830163555 100 275 3.0 10.0 0.00 0.00 0.00 40 1016.7